Weather in Szczecinek

Poland     53°42′07″N   16°42′35″E
temp.,
°C
wind,
m/s
gust,
m/s
humid.,
%
clouds,
%
prec.,
mm/h
press.,
hPa
HPBL,
m
11 may, tue
tue1123:00+16sse31092100 0.0 1010208
02:00+14se3997100 0.0 1010166
05:00+14se41194100 0.0 1010259
08:00+18se597377 0.0 1010360
11:00+23se713525 0.0 10091318
14:00+25se811494 0.0 10081460
17:00+25se712545 0.0 10061495
20:00+21se613701 0.0 1006887
12 may, wed
wed1223:00+18se616762 0.0 1007597
02:00+15se513840 0.0 1007439
05:00+13ese412880 0.0 1007350
08:00+16se59734 0.0 1007443
11:00+21se69605 0.0 1007936
14:00+23se685520 0.0 10071489
17:00+20sse487289 0.3 1007827
20:00+18se387945 1.1 1007284
13 may, thu
thu1323:00+15ese511867 0.3 1008455
02:00+11ese39880 0.3 1008275
05:00+9ese39860 0.0 1007238
08:00+13ese47680 0.0 1006499
11:00+17ese464527 0.0 10051206
14:00+20ese463536 0.0 10031779
17:00+19ese454063 0.0 10021963
20:00+14e476697 0.0 1003529
14 may, fri
fri1423:00+12ene2580100 0.0 1003265
02:00+11ne248197 0.0 1003208
05:00+8ne229591 0.0 100241
08:00+12nne1272100 0.0 1002502
11:00+15nnw226812 1.3 1002996
14:00+17nnw235372 3.0 10021629
17:00+16nw444892 0.8 10021639
20:00+12nw3669100 0.8 1004358
15 may, sat
sat1523:00+8nw269598 0.0 1005221
02:00+7wnw2698100 0.0 1006199
05:00+6w239987 0.0 1007103
08:00+10w237787 0.0 1007448
11:00+14sw455997 0.1 10071373
14:00+16wsw4656100 0.5 10071819
17:00+10wsw488777 0.5 1008666
20:00+10w3893100 0.8 1008581